This is the latest recevied weather packets stored in our database for station/object N8AMF. If no packets are shown the sender has not sent any weather packets the latest 1 day(s).
| Time | Temp. | Humidity | Pressure | Rain* | Wind** | Luminosity | Snow |
|---|---|---|---|---|---|---|---|
| 1778039997 | 7.78° C | 98% | 1008.1 hPa | 1.27 mm | - | 0 W/m² | - |
| 1778039695 | 8.33° C | 98% | 1008.2 hPa | 1.27 mm | - | 0 W/m² | - |
| 1778039391 | 8.33° C | 99% | 1008.4 hPa | 1.27 mm | - | 0 W/m² | - |
| 1778039089 | 8.33° C | 99% | 1008.1 hPa | 1.78 mm | - | 0 W/m² | - |
| 1778038786 | 8.33° C | 99% | 1008.5 hPa | 1.78 mm | - | 0 W/m² | - |
| 1778037877 | 8.89° C | 99% | 1008.8 hPa | 1.78 mm | - | 0 W/m² | - |
| 1778037573 | 8.89° C | 98% | 1008.8 hPa | 3.05 mm | - | 0 W/m² | - |
| 1778037271 | 8.89° C | 98% | 1008.7 hPa | 2.29 mm | - | 0 W/m² | - |
| 1778036968 | 8.89° C | 99% | 1008.3 hPa | 2.29 mm | - | 0 W/m² | - |
| 1778036666 | 8.89° C | 99% | 1008.4 hPa | 2.29 mm | - | 0 W/m² | - |
| 1778036363 | 8.89° C | 99% | 1008.3 hPa | 1.78 mm | - | 0 W/m² | - |
| 1778036060 | 8.89° C | 99% | 1008.4 hPa | 3.05 mm | - | 0 W/m² | - |
| 1778035756 | 8.89° C | 99% | 1008.5 hPa | 4.32 mm | - | 0 W/m² | - |
| 1778035454 | 9.44° C | 99% | 1008.7 hPa | 3.05 mm | - | 0 W/m² | - |
| 1778035149 | 8.89° C | 99% | 1008.7 hPa | 3.56 mm | - | 0 W/m² | - |
| 1778034847 | 9.44° C | 99% | 1008.5 hPa | 4.32 mm | - | 0 W/m² | - |
| 1778034543 | 9.44° C | 99% | 1008.5 hPa | 3.56 mm | - | 0 W/m² | - |
| 1778034241 | 9.44° C | 99% | 1008.4 hPa | 5.33 mm | - | 0 W/m² | - |
| 1778033938 | 9.44° C | 99% | 1008.2 hPa | 6.6 mm | - | 0 W/m² | - |
| 1778033635 | 9.44° C | 98% | 1008.1 hPa | 6.1 mm | - | 0 W/m² | - |
| 1778033332 | 9.44° C | 98% | 1007.9 hPa | 5.33 mm | - | 0 W/m² | - |
| 1778033030 | 9.44° C | 98% | 1008.1 hPa | 4.32 mm | - | 0 W/m² | - |
| 1778032727 | 9.44° C | 98% | 1008.1 hPa | 3.56 mm | - | 0 W/m² | - |
| 1778032425 | 9.44° C | 98% | 1007.9 hPa | 2.29 mm | - | 0 W/m² | - |
| 1778031818 | 9.44° C | 98% | 1007.7 hPa | 0.51 mm | - | 0 W/m² | - |
* Rain latest hour (hover to see other rain measurements)
** Current wind speed in m/s (hover to see current wind gust speed)